Weather in Krivoy Porog

Russia / Republic of Karelia     65°02′23″N   33°40′20″E
temp.,
°C
wind,
m/s
gust,
m/s
humid.,
%
clouds,
%
prec.,
mm/h
press.,
hPa
HPBL,
m
3 august, tue
tue300:00+15ene0087100 0.0 100111
03:00+15e2586100 0.0 1000164
06:00+13ene41095100 1.8 997381
09:00+13ne61398100 9.7 992718
12:00+13e51199100 5.8 988582
15:00+15e41098100 10.9 986463
18:00+16ssw3798100 2.0 985588
21:00+12sw61096100 2.8 987633
4 august, wed
wed400:00+10wsw71193100 0.6 990891
03:00+9sw61193100 0.9 992872
06:00+8wsw71093100 0.8 9921157
09:00+6wsw81395100 4.6 9951065
12:00+6w81495100 3.3 9981117
15:00+7w81594100 4.5 10031368
18:00+8w81592100 1.9 10061408
21:00+9w51292100 2.3 1009780
5 august, thu
thu500:00+9w51290100 0.1 1011515
03:00+8w41191100 0.1 1013306
06:00+9wsw2790100 0.0 1015184
09:00+13wsw3567100 0.0 1016339
12:00+16wsw3553100 0.0 10171048
15:00+18wsw3342100 0.0 10181803
18:00+18sw2346100 0.0 10181682
21:00+14s2464100 0.0 101878
6 august, fri
fri600:00+13ssw2468100 0.0 101985
03:00+12sw227286 0.0 102037
06:00+12ssw237435 0.0 102094
09:00+16ssw235889 0.0 1020326
12:00+18wsw234982 0.0 1021594
15:00+19ssw224378 0.0 10201316
18:00+17sse245794 0.0 1020256
21:00+15s1265100 0.0 102016
7 august, sat
sat700:00+14sw1165100 0.0 102113
03:00+13s1164100 0.0 102110
06:00+13s116598 0.0 102217
09:00+18sse12475 0.0 1021479
12:00+21ese23362 0.0 10211941
15:00+21e44343 0.0 10202035
18:00+19e45400 0.0 10201064
21:00+13e24660 0.0 102072